Location: Champs
(48.8539°N, 2.6040°E)
Time: 06:14:32
(UTC+00:00)

Cosmos 2322 Rocket - Pass Details

Date: 26 October 2021
Orbit: 832 x 851 km, 71.0° (Epoch: 04 December)

Event Time Altitude Azimuth Distance (km) Brightness Sun altitude
Exits shadow 04:33:00 15° 212° (SSW) 2,119 4.0 -19.3°
Drops below altitude 10° 04:34:13 10° 203° (SSW) 2,466 4.4 -19.1°
Sets 04:37:01 0° 191° (S) 3,399 5.2 -18.7°
